Location: Derby
(52.9213°N, 1.4761°W)
Time: 17:03:30
(UTC+01:00)

Vanguard 1 - Pass Details

Date: 20 May 2025
Orbit: 649 x 3822 km, 34.3° (Epoch: 14 June)

Event Time Altitude Azimuth Distance (km) Brightness Sun altitude
Rises 20:44:09 0° 250° (WSW) 6,749 14.9 1.8°
Reaches altitude 10° 20:50:09 10° 241° (WSW) 5,166 14.2 1.1°
Maximum altitude 21:00:23 26° 193° (SSW) 2,924 12.3 -0.2°
Drops below altitude 10° 21:06:59 10° 139° (SE) 3,225 12.1 -1.0°
Enters shadow 21:09:18 - 128° (SE) 3,752 12.3 -1.3°
Sets 21:09:44 0° 126° (SE) 3,867 - -1.3°
